Weather History for Omaha Millard, NE

Change the Weather History Date:

Thursday, July 4, 2013

  Actual Average (KOMA) Record (KOMA)
Temperature  
Mean Temperature 72 °F 76 °F  
Max Temperature 86 °F 87 °F 110 °F (1936)
Min Temperature 59 °F 66 °F 48 °F (1967)
Degree Days  
Heating Degree Days 0 0  
Month to date heating degree days 0  
Since 1 June heating degree days 17  
Since 1 July heating degree days 0  
Cooling Degree Days 8 11  
Month to date cooling degree days 44  
Year to date cooling degree days 356  
Since 1 June cooling degree days 274  
Growing Degree Days 22 (Base 50)    
Moisture  
Dew Point 57 °F    
Average Humidity 59    
Maximum Humidity 88    
Minimum Humidity 32    
Precipitation  
Precipitation 0.00 in 0.13 in 2.74 in (2010)
Month to date precipitation 0.49  
Year to date precipitation 15.95  
Snow  
Snow 0.00 in 0.00 in - ()
Month to date snowfall 0.0  
Since 1 July snowfall 0.0  
Snow Depth -    
Sea Level Pressure  
Sea Level Pressure 29.96 in    
Wind  
Wind Speed 5 mph (SSE)    
Max Wind Speed 15 mph    
Max Gust Speed 22 mph    
Visibility 10 miles    
Events      
T = Trace of Precipitation, MM = Missing Value Source: NWS Daily Summary

Daily Weather History Graph

Daily Weather History Graph

Search for Another Location

Airport:

Trip Planner

Search our weather history database for the weather conditions in past years. The results will help you decide how hot, cold, wet, or windy it might be!

Date:

Astronomy

Jul. 04, 2013 Rise Set
Actual Time 5:57 AM CDT 9:00 PM CDT
Civil Twilight 5:23 AM CDT 9:33 PM CDT
Nautical Twilight 4:41 AM CDT 10:16 PM CDT
Astronomical Twilight 3:50 AM CDT 11:06 PM CDT
Moon 3:15 AM CDT (7/4) 6:05 PM CDT (7/4)
Length of Visible Light 16h 10m
Length of Day
15h 03m
Waning Crescent, 11% of the Moon is Illuminated
Jul 4
Waning Crescent
Jul 8
New
Jul 15
First Quarter
Jul 22
Full
Jul 29
Last Quarter

Hourly Weather History & Observations

Time (CDT) Temp. Heat Index Dew Point Humidity Pressure Visibility Wind Dir Wind Speed Gust Speed Precip Events Conditions
12:15 AM 65.3 °F - 59.0 °F 80% 29.99 in 10.0 mi Calm Calm - N/A   Clear
12:35 AM 64.0 °F - 59.7 °F 86% 29.99 in 7.0 mi Calm Calm - N/A   Clear
12:55 AM 66.2 °F - 59.0 °F 78% 29.99 in 10.0 mi ESE 4.6 mph - N/A   Clear
1:15 AM 66.2 °F - 59.0 °F 78% 29.99 in 10.0 mi SE 4.6 mph - N/A   Clear
1:35 AM 65.5 °F - 58.5 °F 78% 29.99 in 10.0 mi ESE 4.6 mph - N/A   Clear
1:55 AM 64.6 °F - 57.4 °F 77% 29.99 in 10.0 mi Calm Calm - N/A   Clear
2:15 AM 63.7 °F - 57.4 °F 80% 29.99 in 10.0 mi Calm Calm - N/A   Clear
2:35 AM 64.2 °F - 57.2 °F 78% 29.99 in 10.0 mi Calm Calm - N/A   Clear
2:55 AM 63.9 °F - 56.5 °F 77% 29.99 in 10.0 mi SSE 4.6 mph - N/A   Clear
3:15 AM 64.0 °F - 55.9 °F 75% 29.99 in 10.0 mi Calm Calm - N/A   Clear
3:35 AM 63.9 °F - 55.9 °F 75% 29.99 in 10.0 mi SE 3.5 mph - N/A   Clear
3:55 AM 63.5 °F - 55.9 °F 76% 29.99 in 10.0 mi ESE 3.5 mph - N/A   Clear
4:15 AM 62.8 °F - 56.1 °F 79% 29.99 in 10.0 mi Calm Calm - N/A   Clear
4:35 AM 62.1 °F - 55.6 °F 79% 29.99 in 10.0 mi Calm Calm - N/A   Clear
4:55 AM 61.9 °F - 55.9 °F 81% 29.99 in 10.0 mi Calm Calm - N/A   Clear
5:15 AM 61.2 °F - 55.8 °F 82% 29.99 in 10.0 mi Calm Calm - N/A   Clear
5:35 AM 60.4 °F - 55.4 °F 83% 29.99 in 10.0 mi Calm Calm - N/A   Clear
5:55 AM 60.1 °F - 56.3 °F 87% 30.00 in 10.0 mi Calm Calm - N/A   Clear
6:15 AM 59.9 °F - 56.3 °F 88% 29.99 in 10.0 mi Calm Calm - N/A   Clear
6:35 AM 60.1 °F - 56.3 °F 87% 30.00 in 10.0 mi Calm Calm - N/A   Clear
6:55 AM 61.2 °F - 56.3 °F 84% 30.00 in 10.0 mi SE 4.6 mph - N/A   Clear
7:15 AM 61.9 °F - 56.3 °F 82% 30.00 in 4.0 mi SE 4.6 mph - N/A   Haze
7:35 AM 63.3 °F - 56.7 °F 79% 30.00 in 10.0 mi ESE 4.6 mph - N/A   Clear
7:55 AM 64.6 °F - 57.7 °F 78% 30.01 in 10.0 mi SE 4.6 mph - N/A   Clear
8:15 AM 66.0 °F - 59.2 °F 79% 30.01 in 10.0 mi SE 4.6 mph - N/A   Clear
8:35 AM 68.4 °F - 58.1 °F 70% 30.01 in 10.0 mi SSE 5.8 mph - N/A   Clear
8:55 AM 69.4 °F - 57.4 °F 65% 30.00 in 10.0 mi South 5.8 mph - N/A   Clear
9:15 AM 70.9 °F - 57.7 °F 63% 30.00 in 10.0 mi SSE 9.2 mph - N/A   Clear
9:35 AM 72.0 °F - 58.1 °F 62% 30.00 in 10.0 mi South 9.2 mph - N/A   Clear
9:55 AM 72.9 °F - 58.5 °F 60% 30.00 in 10.0 mi South 6.9 mph - N/A   Clear
10:15 AM 75.2 °F - 60.1 °F 59% 29.99 in 10.0 mi South 6.9 mph - N/A   Clear
10:35 AM 75.9 °F - 58.8 °F 55% 29.99 in 10.0 mi South 8.1 mph - N/A   Clear
10:55 AM 77.2 °F - 59.4 °F 54% 29.99 in 10.0 mi SSE 9.2 mph - N/A   Clear
11:15 AM 78.1 °F - 59.5 °F 53% 29.99 in 10.0 mi SSE 8.1 mph - N/A   Clear
11:35 AM 78.8 °F - 59.9 °F 52% 29.99 in 10.0 mi South 10.4 mph - N/A   Clear
11:55 AM 79.7 °F - 60.8 °F 52% 29.99 in 10.0 mi South 8.1 mph - N/A   Scattered Clouds
12:15 PM 79.7 °F - 59.4 °F 50% 29.98 in 10.0 mi SSE 11.5 mph 17.3 mph N/A   Clear
12:35 PM 80.8 °F 81.2 °F 58.8 °F 47% 29.98 in 10.0 mi SSE 10.4 mph 17.3 mph N/A   Clear
12:55 PM 81.5 °F 81.8 °F 59.4 °F 47% 29.97 in 10.0 mi South 9.2 mph 17.3 mph N/A   Clear
1:15 PM 81.9 °F 81.9 °F 58.3 °F 45% 29.96 in 10.0 mi South 12.7 mph 20.7 mph N/A   Clear
1:35 PM 82.8 °F 82.4 °F 57.6 °F 42% 29.96 in 10.0 mi SSE 11.5 mph - N/A   Clear
1:55 PM 83.5 °F 83.1 °F 57.9 °F 42% 29.96 in 10.0 mi South 6.9 mph 17.3 mph N/A   Scattered Clouds
2:15 PM 83.8 °F 83.4 °F 58.5 °F 42% 29.95 in 10.0 mi SSE 10.4 mph 20.7 mph N/A   Clear
2:35 PM 84.4 °F 83.8 °F 58.1 °F 41% 29.94 in 10.0 mi SSE 11.5 mph 19.6 mph N/A   Clear
2:55 PM 84.2 °F 82.9 °F 54.9 °F 36% 29.95 in 10.0 mi South 11.5 mph 19.6 mph N/A   Clear
3:15 PM 84.6 °F 83.1 °F 54.1 °F 35% 29.94 in 10.0 mi South 11.5 mph 17.3 mph N/A   Clear
3:35 PM 85.3 °F 84.1 °F 55.9 °F 37% 29.94 in 10.0 mi South 11.5 mph 17.3 mph N/A   Clear
3:55 PM 85.5 °F 83.8 °F 54.0 °F 34% 29.94 in 10.0 mi SSE 12.7 mph 16.1 mph N/A   Clear
4:15 PM 85.5 °F 83.7 °F 53.4 °F 33% 29.94 in 10.0 mi South 13.8 mph 19.6 mph N/A   Clear
4:35 PM 85.8 °F 84.0 °F 53.8 °F 33% 29.93 in 10.0 mi South 10.4 mph 18.4 mph N/A   Clear
4:55 PM 85.5 °F - 52.2 °F 32% 29.93 in 10.0 mi South 12.7 mph 21.9 mph N/A   Clear
5:15 PM 86.0 °F 84.5 °F 55.2 °F 35% 29.92 in 10.0 mi SSE 15.0 mph 18.4 mph N/A   Clear
5:35 PM 85.3 °F 83.9 °F 55.4 °F 36% 29.91 in 10.0 mi SSE 13.8 mph - N/A   Clear
5:55 PM 85.1 °F 83.8 °F 55.6 °F 36% 29.91 in 10.0 mi SSE 12.7 mph 19.6 mph N/A   Clear
6:15 PM 84.7 °F 83.4 °F 54.9 °F 36% 29.91 in 10.0 mi SSE 12.7 mph 18.4 mph N/A   Clear
6:35 PM 84.7 °F 83.3 °F 54.5 °F 35% 29.91 in 10.0 mi SSE 10.4 mph - N/A   Clear
6:55 PM 84.2 °F 82.8 °F 54.0 °F 35% 29.91 in 10.0 mi SSE 13.8 mph 17.3 mph N/A   Clear
7:15 PM 83.7 °F 82.5 °F 54.7 °F 37% 29.91 in 10.0 mi SSE 10.4 mph - N/A   Clear
7:35 PM 82.9 °F 82.4 °F 56.8 °F 41% 29.90 in 10.0 mi SE 6.9 mph - N/A   Clear
7:55 PM 81.3 °F 81.4 °F 58.3 °F 45% 29.90 in 10.0 mi SE 6.9 mph - N/A   Clear
8:15 PM 79.3 °F - 58.8 °F 49% 29.90 in 10.0 mi SE 8.1 mph - N/A   Clear
8:35 PM 78.4 °F - 58.5 °F 50% 29.90 in 10.0 mi SE 6.9 mph - N/A   Clear
8:55 PM 77.2 °F - 58.5 °F 52% 29.90 in 10.0 mi SE 5.8 mph - N/A   Clear
9:15 PM 76.1 °F - 58.3 °F 54% 29.90 in 10.0 mi SE 5.8 mph - N/A   Clear
9:35 PM 74.5 °F - 58.6 °F 58% 29.90 in 10.0 mi SE 6.9 mph - N/A   Clear
9:55 PM 74.3 °F - 58.5 °F 58% 29.90 in 10.0 mi SE 8.1 mph - N/A   Clear
10:15 PM 73.8 °F - 58.1 °F 58% 29.91 in 10.0 mi SE 6.9 mph - N/A   Clear
10:35 PM 73.4 °F - 58.1 °F 59% 29.91 in 10.0 mi SE 6.9 mph - N/A   Clear
10:55 PM 72.9 °F - 57.7 °F 59% 29.92 in 10.0 mi SE 8.1 mph - N/A   Clear
11:15 PM 72.1 °F - 57.6 °F 60% 29.92 in 10.0 mi SE 8.1 mph - N/A   Clear
11:35 PM 72.3 °F - 57.6 °F 60% 29.92 in 10.0 mi SE 8.1 mph - N/A   Clear
11:55 PM 72.1 °F - 57.4 °F 60% 29.92 in 10.0 mi SE 4.6 mph - N/A   Clear